Location: Ottawa
(45.4170°N, 75.7000°W)
Time: 23:32:31
(UTC-04:00)

ISS - Pass Details

Date: 27 May 2021
Orbit: 417 x 422 km, 51.6° (Epoch: 13 June)

Event Time Altitude Azimuth Distance (km) Brightness Sun altitude
Rises 22:26:54 0° 299° (WNW) 2,368 1.3 -14.6°
Reaches altitude 10° 22:29:00 10° 299° (WNW) 1,502 0.1 -14.8°
Maximum altitude 22:32:23 86° 28° (NNE) 425 -3.8 -15.1°
Enters shadow 22:33:49 32° 116° (ESE) 745 -3.0 -15.3°
